Cincinnati, OH

4:27 PM EDT on March 25, 2017 (GMT -0400)
Cincinnati Municipal-Lunken

Weather History for KLUK - May, 2013

Change the Weather History Date:

Tuesday, May 21, 2013

  Actual Average Record
Temperature  
Mean Temperature 74 °F -  
Max Temperature 82 °F 76 °F 91 °F (1975)
Min Temperature 66 °F 55 °F 37 °F (2002)
Cooling Degree Days 9    
Growing Degree Days 24 (Base 50)    
Moisture  
Dew Point 65 °F    
Average Humidity 76    
Maximum Humidity 97    
Minimum Humidity 51    
Precipitation  
Precipitation 0.00 in - - ()
Sea Level Pressure  
Sea Level Pressure 29.88 in    
Wind  
Wind Speed 7 mph (SSW)    
Max Wind Speed 16 mph    
Max Gust Speed 22 mph    
Visibility 10 miles    
Events      
Averages and records for this station are not official NWS values.
T = Trace of Precipitation, MM = Missing Value Source: NWS Daily Summary

Daily Weather History Graph

Daily Weather History Graph

Search for Another Location

Airport or City:

Trip Planner

Search our weather history database for the weather conditions in past years. The results will help you decide how hot, cold, wet, or windy it might be!

Date:

Astronomy

May. 21, 2013 Rise Set
Actual Time 6:19 AM EDT 8:49 PM EDT
Civil Twilight 5:48 AM EDT 9:20 PM EDT
Nautical Twilight 5:10 AM EDT 9:58 PM EDT
Astronomical Twilight 4:28 AM EDT 10:40 PM EDT
Moon 5:03 PM EDT (5/21) 3:45 AM EDT (5/21)
Length of Visible Light 15h 31m
Length of Day
14h 29m
Waxing Gibbous, 84% of the Moon is Illuminated
May 21
Waxing Gibbous
May 25
Full
May 31
Last Quarter
Jun 8
New
Jun 16
First Quarter

Hourly Weather History & Observations

Time (EDT) Temp. Heat Index Dew Point Humidity Pressure Visibility Wind Dir Wind Speed Gust Speed Precip Events Conditions
12:53 AM 69.1 °F - 66.9 °F 93% 29.91 in 9.0 mi SW 3.5 mph - N/A   Clear
1:53 AM 68.0 °F - 66.9 °F 96% 29.91 in 7.0 mi Calm Calm - N/A   Clear
2:53 AM 66.9 °F - 66.0 °F 97% 29.91 in 7.0 mi South 5.8 mph - N/A   Clear
3:53 AM 72.0 °F - 66.9 °F 84% 29.89 in 10.0 mi SW 11.5 mph - N/A   Clear
4:53 AM 71.1 °F - 66.0 °F 84% 29.89 in 10.0 mi SSW 9.2 mph - N/A   Clear
5:53 AM 72.0 °F - 66.0 °F 81% 29.92 in 10.0 mi WSW 11.5 mph 18.4 mph N/A   Scattered Clouds
6:53 AM 66.9 °F - 64.0 °F 90% 29.91 in 9.0 mi South 6.9 mph - N/A   Clear
7:53 AM 70.0 °F - 66.0 °F 87% 29.92 in 10.0 mi South 5.8 mph - N/A   Clear
8:53 AM 73.0 °F - 66.9 °F 81% 29.95 in 10.0 mi SSW 5.8 mph - N/A   Clear
9:53 AM 73.0 °F - 66.0 °F 79% 29.95 in 10.0 mi SSW 4.6 mph - 0.00 in   Mostly Cloudy
10:53 AM 75.9 °F - 64.9 °F 69% 29.89 in 10.0 mi SSE 6.9 mph - N/A   Clear
11:53 AM 79.0 °F - 66.0 °F 64% 29.88 in 10.0 mi SE 9.2 mph - N/A   Clear
12:53 PM 78.1 °F - 68.0 °F 71% 29.88 in 10.0 mi South 4.6 mph - N/A   Clear
1:53 PM 82.0 °F 84.5 °F 66.9 °F 60% 29.86 in 10.0 mi SW 12.7 mph - N/A   Clear
2:53 PM 82.9 °F 84.6 °F 64.9 °F 54% 29.86 in 10.0 mi SSW 12.7 mph 21.9 mph N/A   Clear
3:53 PM 82.9 °F 84.0 °F 63.0 °F 51% 29.86 in 10.0 mi SW 16.1 mph 21.9 mph N/A   Partly Cloudy
4:53 PM 81.0 °F 82.5 °F 64.0 °F 56% 29.85 in 10.0 mi SW 9.2 mph - N/A   Mostly Cloudy
5:53 PM 81.0 °F 82.5 °F 64.0 °F 56% 29.83 in 10.0 mi SW 12.7 mph 21.9 mph N/A   Mostly Cloudy
6:53 PM 79.0 °F - 64.9 °F 62% 29.81 in 10.0 mi SSW 5.8 mph - N/A   Clear
7:53 PM 75.9 °F - 64.0 °F 67% 29.82 in 10.0 mi SSW 9.2 mph - N/A   Clear
8:53 PM 71.1 °F - 63.0 °F 75% 29.83 in 10.0 mi South 8.1 mph - N/A   Partly Cloudy
9:53 PM 70.0 °F - 64.9 °F 84% 29.85 in 10.0 mi South 8.1 mph - N/A   Clear
10:53 PM 68.0 °F - 64.0 °F 87% 29.86 in 10.0 mi South 6.9 mph - N/A   Clear
11:53 PM 66.0 °F - 64.0 °F 93% 29.86 in 10.0 mi SSW 6.9 mph - N/A   Clear